sat.trackr.live / text

‹ back to catalog

STARLINK-36392

NORAD 68115 · 2026-044Q

PAYLOAD ACTIVE UNKNOWN

§ Identity

Operator
Country
US
Launch date
2026-03-08
Launch site
AFWTR
Launch vehicle
Mass (kg)
RCS (m²)

Purposes: comms

External: N2YO · Heavens-Above · Gunter

§ Orbital elements

Epoch: 2026-05-24T20:02:17.721312Z

Period
93.91 min
Inclination
97.2840°
Eccentricity
0.0001260
Mean motion
15.33454024 rev/d
Perigee alt
464.7 km
Apogee alt
466.4 km
Semi-major
6,843.7 km
B*
7.9924e-4
RAAN
105.4844°
Arg perigee
90.1079°
Mean anomaly
270.0308°
Rev number
1,325

§ Raw data

STARLINK-363921 68115U 26044Q   26144.83492733  .00025823  00000+0  79924-3 0  99962 68115  97.2840 105.4844 0001260  90.1079 270.0308 15.33454024 13256

JSON: /api/v1/satellites/68115 · /tle

For live sub-satellite position, see the globe view (requires WebGL).

§ Visibility from observer

Set your observer location to see the next 7 days of passes ≥ 10°. The values pass through the URL so the page stays shareable.

No JS? Fill the form by hand. The geolocation button needs JavaScript.